Content
SEND FEEDBACK

Daily
Averages
Monthly
Summary
Canada

QUEBEC CITY, QUEBEC


Home > North America > Canada > Quebec
Elevation: 239 feet     Latitude: 46 48N     Longitude: 071 23W

WEATHER
 
SELECT A DAY
Number of Records: 196,835;   Date Range: 6/30/96 - 11/19/14
 
SHARE

PRINT THIS DATA

[ ← Previous Day ]
WEATHER ALMANAC - JANUARY 28, 2013
[ Next Day → ]
[ °C ]   °F
Weather ElementAverageHighLow
Temperature7.2 °F15.8 °F (4:00 pm)-7 °F (7:00 am)
Dewpoint-3.6 °F5 °F (10:00 pm)-13 °F (7:00 am)
Humidity59.3 %73 % (7:00 am)40 % (4:00 pm)
Barometer30.28 in30.44 in (1:00 am)30.07 in (10:00 pm)
Wind Speed5.4 mph17.3 mph (5:00 am)
Weather ElementAverage
Visibility18 mi
Wind DirectionS (177 °)

Weather ElementTotal
Precipitation---
Heating Degree Days60.6 (Base 65)
Averaged from 31 records on January 28, 2013
WEATHER CONDITIONS BREAKOUT
WIND DIRECTION BREAKOUT
WEATHER BY HOUR - JANUARY 28, 2013
[ °C ]   °F
Local TimeTemperatureDewpointHumidityBarometerVisibilityWind DirectionWind SpeedGust SpeedPrecipitationEventsConditions
1:00 AM-1.0 °F-7.0 °F64 %30.43 inWest (270°)5.8 mph
1:00 AM1.4 °F-9.4 °F61 %30.44 in15.0 miSW (230°)13.8 mphScattered Clouds
2:00 AM-0.4 °F-7.6 °F72 %30.44 in15.0 miWSW (250°)16.1 mphScattered Clouds
3:00 AM-0.4 °F-9.4 °F66 %30.43 in15.0 miWSW (250°)16.1 mphPartly Cloudy
4:00 AM0.0 °F-5.0 °F68 %30.42 inWest (260°)6.9 mph
4:00 AM-0.4 °F-7.6 °F72 %30.42 in15.0 miWSW (250°)15.0 mphPartly Cloudy
5:00 AM-0.4 °F-9.4 °F66 %30.42 in15.0 miWest (260°)17.3 mphScattered Clouds
6:00 AM1.4 °F-9.4 °F61 %30.42 in15.0 miWest (280°)4.6 mphPartly Cloudy
7:00 AM-7.0 °F-11.0 °F73 %30.40 inNW (320°)2.3 mph
7:00 AM-4.0 °F-13.0 °F65 %30.41 in15.0 miCalmMostly Cloudy
8:00 AM1.4 °F-5.8 °F72 %30.40 in15.0 miWSW (240°)8.1 mphMostly Cloudy
9:00 AM3.2 °F-5.8 °F66 %30.39 in15.0 miWest (270°)4.6 mphMostly Cloudy
10:00 AM5.0 °F-1.0 °F66 %30.37 inWest (280°)2.3 mph
10:00 AM6.8 °F-4.0 °F61 %30.38 in15.0 miWest (260°)3.5 mphMostly Cloudy
11:00 AM8.6 °F-0.4 °F67 %30.35 in15.0 miSSE (150°)2.3 mphMostly Cloudy
12:00 PM12.2 °F-2.2 °F53 %30.31 in15.0 miSW (220°)2.3 mphMostly Cloudy
1:00 PM11.0 °F2.0 °F53 %30.26 inWest (280°)2.3 mph
1:00 PM12.2 °F-0.4 °F57 %30.27 in30.0 miWSW (240°)4.6 mphMostly Cloudy
2:00 PM14.0 °F-2.2 °F49 %30.22 in30.0 miNW (310°)2.3 mphMostly Cloudy
3:00 PM14.0 °F-2.2 °F49 %30.20 in30.0 miCalmMostly Cloudy
4:00 PM14.0 °F0.0 °F40 %30.16 inCalm
4:00 PM15.8 °F-2.2 °F45 %30.17 in30.0 miNorth (10°)4.6 mphMostly Cloudy
5:00 PM12.2 °F-2.2 °F53 %30.15 in30.0 miSSE (150°)2.3 mphMostly Cloudy
6:00 PM14.0 °F-2.2 °F49 %30.13 in15.0 miNorth (350°)4.6 mphMostly Cloudy
7:00 PM9.0 °F0.0 °F54 %30.11 inNE (50°)1.2 mph
7:00 PM14.0 °F-4.0 °F45 %30.11 in15.0 miNorth (10°)4.6 mphMostly Cloudy
8:00 PM12.2 °F-2.2 °F53 %30.10 in15.0 miNNE (30°)4.6 mphMostly Cloudy
9:00 PM14.0 °F-0.4 °F53 %30.10 in15.0 miNNE (30°)4.6 mphOvercast
10:00 PM13.0 °F5.0 °F57 %30.07 inNNE (20°)1.2 mph
10:00 PM14.0 °F3.2 °F62 %30.08 in15.0 miNorth (10°)4.6 mphOvercast
11:00 PM14.0 °F5.0 °F67 %30.09 in10.0 miNNE (30°)3.5 mphOvercast
Hourly data recorded from CYQB, located miles away from Quebec City, Quebec







STORIES FROM OUR PARTNERS